User: anonymous   Login
Location: *
(45.9500°N, 9.0833°E)
Time: 01:58:22
(UTC+00:00)
Language:

SL-16 R/B - Orbit

View from above orbital plane
View from above orbital plane
View from above satellite
View from above satellite

Ground track
Ground track

The orbit data is extracted from the following two-line orbital elements,

1 31793U 07029B   21125.46925216 -.00000162  00000-0 -59652-4 0  9999
2 31793  70.9757 289.9160 0002248 263.4033 114.6549 14.14449434715193
Epoch (UTC): 05 May 2021 11:15:43
Eccentricity: 0.0002248
inclination: 70.9757°
perigee height: 842 km
apogee height: 846 km
right ascension of ascending node: 289.9160°
argument of perigee: 263.4033°
revolutions per day: 14.14449434
mean anomaly at epoch: 114.6549°
orbit number at epoch: 71519

The dashed part of the orbit path shows where the satellite is in the earth's shadow,  

DLR